Printer-friendly version

IAU Minor Planet Center

Minor Planet Center

MPEC 2000-R23: 2000 PO30

The following Minor Planet Electronic Circular may be linked-to from your own Web pages, but must not otherwise be redistributed electronically.


Read MPEC 2000-R22 Read MPEC 2000-R24


M.P.E.C. 2000-R23                                Issued 2000 Sept. 6, 16:38 UT

     The Minor Planet Electronic Circulars contain information on unusual
         minor planets and routine data on comets.  They are published
   on behalf of Commission 20 of the International Astronomical Union by the
          Minor Planet Center, Smithsonian Astrophysical Observatory,
                          Cambridge, MA 02138, U.S.A.

             Prepared using the Tamkin Foundation Computer Network

             BMARSDEN@CFA.HARVARD.EDU or GWILLIAMS@CFA.HARVARD.EDU
          URL http://cfa-www.harvard.edu/iau/mpc.html  ISSN 1523-6714

                                   2000 PO30

Observations:
     K00P30O*3C2000 08 02.56452 04 45 56.53 +22 07 56.6                      568
     K00P30O 3C2000 08 02.57248 04 45 58.77 +22 07 59.0                      568
     K00P30O 3C2000 08 02.62876 04 46 13.49 +22 08 15.9                      568
     K00P30O 3C2000 08 02.63323 04 46 14.69 +22 08 17.2                      568
     K00P30O 3C2000 08 03.55811 04 50 20.04 +22 12 28.4                      568
     K00P30O 3C2000 08 03.56263 04 50 21.23 +22 12 29.7          21.7 R      568
     K00P30O 3C2000 08 03.62493 04 50 37.66 +22 12 46.8                      568
     K00P30O 3C2000 08 04.55632 04 54 45.26 +22 16 34.4                      568
     K00P30O 3C2000 08 04.56418 04 54 47.28 +22 16 37.7                      568
     K00P30O 3C2000 08 04.58003 04 54 51.48 +22 16 40.9                      568
     K00P30O 3C2000 08 04.58732 04 54 53.41 +22 16 42.9                      568
     K00P30O 3C2000 08 04.62400 04 55 03.11 +22 16 51.7                      568
     K00P30O 3C2000 08 07.60820 05 08 18.18 +22 26 20.3                      568
     K00P30O 3C2000 08 07.61266 05 08 19.37 +22 26 20.8                      568
     K00P30O 3C2000 08 07.62670 05 08 23.09 +22 26 23.2                      568
     K00P30O 3C2000 08 07.63118 05 08 24.28 +22 26 23.9                      568
     K00P30O 3C2000 09 05.63620 07 14 54.06 +20 27 27.0                      568
     K00P30O 3C2000 09 05.64225 07 14 55.54 +20 27 23.4                      568

Observer details:
568 Mauna Kea.  Observers M. Connors, C. Veillet. 3.6-m CFHT + CCD.

Orbital elements:
2000 PO30
Epoch 2000 Sept. 13.0 TT = JDT 2451800.5                Spahr
M   2.73997              (2000.0)            P               Q
n   0.40555733     Peri.  217.75707     +0.51859684     -0.85472594
a   1.8075953      Node   201.03341     +0.79886978     +0.49370371
e   0.3917578      Incl.    3.57508     +0.30473660     +0.16031286
P   2.43           H   19.4           G   0.15           U   8
From 18 observations 2000 Aug. 2 - Sept. 5, mean residual 0".47.

Ephemeris:
2000 PO30                a,e,i = 1.81, 0.39, 4                   q = 1.0995
Date    TT    R. A. (2000) Decl.     Delta      r     Elong.  Phase     V
2000 09 03    07 03.89   +20 52.8    1.281    1.100    55.9    49.4    22.0
2000 09 13    07 44.78   +19 04.5    1.286    1.102    55.9    49.1    22.0
2000 09 23    08 23.20   +16 48.1    1.295    1.113    56.2    48.5    22.0
2000 10 03    08 58.93   +14 12.5    1.305    1.133    57.0    47.8    22.0
2000 10 13    09 31.96   +11 26.0    1.314    1.161    58.4    47.0    22.1
2000 10 23    10 02.41   +08 35.5    1.320    1.196    60.3    46.3    22.1
2000 11 02    10 30.43   +05 46.7    1.321    1.237    62.8    45.5    22.2
2000 11 12    10 56.12   +03 04.1    1.316    1.282    65.8    44.8    22.2
2000 11 22    11 19.60   +00 31.2    1.303    1.331    69.5    44.0    22.3
2000 12 02    11 40.87   -01 49.4    1.283    1.383    73.8    43.2    22.3
2000 12 12    11 59.85   -03 55.0    1.255    1.436    78.8    42.3    22.3
2000 12 22    12 16.40   -05 43.8    1.219    1.490    84.4    41.1    22.3
2001 01 01    12 30.23   -07 13.5    1.177    1.544    90.8    39.5    22.3
2001 01 11    12 40.97   -08 21.7    1.129    1.599    98.1    37.5    22.2
2001 01 21    12 48.20   -09 05.8    1.079    1.653   106.3    34.8    22.1
2001 01 31    12 51.38   -09 22.4    1.030    1.706   115.7    31.4    22.0
2001 02 10    12 50.14   -09 08.5    0.985    1.758   126.1    27.0    21.8
2001 02 20    12 44.36   -08 22.0    0.949    1.808   137.8    21.5    21.6
2001 03 02    12 34.50   -07 03.8    0.929    1.858   150.6    15.2    21.4
2001 03 12    12 21.80   -05 20.9    0.931    1.906   164.1     8.2    21.2
2001 03 22    12 08.10   -03 26.1    0.956    1.952   177.0     1.5    21.0
2001 04 01    11 55.42   -01 35.0    1.008    1.997   168.1     5.9    21.4
2001 04 11    11 45.38   -00 01.1    1.085    2.039   155.5    11.8    21.8
2001 04 21    11 38.77   +01 08.1    1.184    2.080   143.7    16.6    22.2

Timothy B. Spahr             (C) Copyright 2000 MPC           M.P.E.C. 2000-R23

Read MPEC 2000-R22 Read MPEC 2000-R24


Our Web policy. Index to the CBAT/MPC/ICQ pages.


Valid HTML 4.01!